Time,TemperatureF,DewpointF,PressureIn,WindDirection,WindDirectionDegrees,WindSpeedMPH,WindSpeedGustMPH,Humidity,HourlyPrecipIn,Conditions,Clouds,dailyrainin,SoftwareType,DateUTC
2013-01-30 00:01:00,69.0,66.0,30.10,SSE,158,0.0,0.0,89,0.00,,,0.00,,2013-01-30 05:01:00,
2013-01-30 00:04:00,69.0,65.0,30.10,SE,144,0.0,3.0,88,0.00,,,0.00,,2013-01-30 05:04:00,
2013-01-30 00:12:00,69.0,66.0,30.10,SSE,158,0.0,0.0,89,0.00,,,0.00,,2013-01-30 05:12:00,
2013-01-30 00:22:00,69.0,66.0,30.10,SSE,158,0.0,0.0,89,0.00,,,0.00,,2013-01-30 05:22:00,
2013-01-30 00:32:00,69.0,66.0,30.10,SSE,158,0.0,0.0,89,0.00,,,0.00,,2013-01-30 05:32:00,
2013-01-30 00:43:00,69.0,66.0,30.10,SSE,158,0.0,0.0,89,0.00,,,0.00,,2013-01-30 05:43:00,
2013-01-30 00:52:00,69.0,66.0,30.10,SSE,158,0.0,0.0,89,0.00,,,0.00,,2013-01-30 05:52:00,
2013-01-30 01:22:00,69.0,66.0,30.09,SSE,158,0.0,2.0,90,0.00,,,0.00,,2013-01-30 06:22:00,
2013-01-30 01:32:00,69.0,66.0,30.09,SSE,158,0.0,2.0,90,0.00,,,0.00,,2013-01-30 06:32:00,
2013-01-30 01:42:00,69.0,66.0,30.09,SSE,158,0.0,2.0,90,0.00,,,0.00,,2013-01-30 06:42:00,
2013-01-30 01:52:00,69.0,66.0,30.09,SSE,158,0.0,2.0,90,0.00,,,0.00,,2013-01-30 06:52:00,
2013-01-30 02:02:00,69.0,66.0,30.09,SSE,158,0.0,2.0,90,0.00,,,0.00,,2013-01-30 07:02:00,
2013-01-30 02:12:00,69.0,66.0,30.09,SSE,158,0.0,2.0,90,0.00,,,0.00,,2013-01-30 07:12:00,
2013-01-30 02:21:00,68.0,65.0,30.09,SSE,158,0.0,2.0,91,0.00,,,0.00,,2013-01-30 07:21:00,
2013-01-30 02:31:00,67.0,65.0,30.07,SSE,158,0.0,1.0,92,0.00,,,0.00,,2013-01-30 07:31:00,
2013-01-30 02:32:00,68.0,65.0,30.09,SSE,158,0.0,2.0,91,0.00,,,0.00,,2013-01-30 07:32:00,
2013-01-30 02:42:00,68.0,65.0,30.09,SSE,158,0.0,2.0,91,0.00,,,0.00,,2013-01-30 07:42:00,
2013-01-30 02:52:00,67.0,65.0,30.07,SSE,158,0.0,1.0,92,0.00,,,0.00,,2013-01-30 07:52:00,
2013-01-30 03:02:00,67.0,65.0,30.07,SSE,158,0.0,1.0,92,0.00,,,0.00,,2013-01-30 08:02:00,
2013-01-30 03:11:00,67.0,65.0,30.07,SSE,158,0.0,1.0,92,0.00,,,0.00,,2013-01-30 08:11:00,
2013-01-30 03:21:00,67.0,65.0,30.07,SSE,158,0.0,1.0,92,0.00,,,0.00,,2013-01-30 08:21:00,
2013-01-30 10:23:00,74.0,66.0,30.01,SSW,203,2.0,13.0,75,0.00,,,0.00,,2013-01-30 15:23:00,
2013-01-30 10:33:00,74.0,66.0,30.01,SSW,203,2.0,13.0,75,0.00,,,0.00,,2013-01-30 15:33:00,
2013-01-30 10:43:00,74.0,66.0,30.01,SSW,203,2.0,13.0,75,0.00,,,0.00,,2013-01-30 15:43:00,
2013-01-30 10:53:00,75.0,65.0,30.01,South,181,1.0,11.0,71,0.00,,,0.00,,2013-01-30 15:53:00,
2013-01-30 11:03:00,75.0,65.0,30.01,South,181,1.0,11.0,71,0.00,,,0.00,,2013-01-30 16:03:00,
2013-01-30 11:12:00,75.0,65.0,30.01,South,181,1.0,11.0,71,0.00,,,0.00,,2013-01-30 16:12:00,
2013-01-30 11:23:00,77.0,65.0,29.98,ESE,103,3.0,11.0,66,0.00,,,0.00,,2013-01-30 16:23:00,
2013-01-30 11:32:00,77.0,65.0,29.98,ESE,103,3.0,11.0,66,0.00,,,0.00,,2013-01-30 16:32:00,
2013-01-30 11:42:00,77.0,65.0,29.98,ESE,103,3.0,11.0,66,0.00,,,0.00,,2013-01-30 16:42:00,
2013-01-30 11:52:00,77.0,65.0,29.98,ESE,103,3.0,11.0,66,0.00,,,0.00,,2013-01-30 16:52:00,
2013-01-30 12:02:00,78.0,65.0,29.98,South,191,3.0,11.0,64,0.00,,,0.00,,2013-01-30 17:02:00,
2013-01-30 12:13:00,78.0,65.0,29.98,South,191,3.0,11.0,64,0.00,,,0.00,,2013-01-30 17:13:00,
2013-01-30 12:23:00,78.0,64.0,29.96,SE,128,2.0,12.0,63,0.00,,,0.00,,2013-01-30 17:23:00,
2013-01-30 12:33:00,78.0,64.0,29.96,SE,128,2.0,12.0,63,0.00,,,0.00,,2013-01-30 17:33:00,
2013-01-30 12:43:00,78.0,64.0,29.96,SE,128,2.0,12.0,63,0.00,,,0.00,,2013-01-30 17:43:00,
2013-01-30 12:53:00,79.0,64.0,29.95,SSW,193,5.0,13.0,61,0.00,,,0.00,,2013-01-30 17:53:00,
2013-01-30 13:03:00,79.0,64.0,29.95,SSW,193,5.0,13.0,61,0.00,,,0.00,,2013-01-30 18:03:00,
2013-01-30 13:13:00,79.0,64.0,29.95,SSW,193,5.0,13.0,61,0.00,,,0.00,,2013-01-30 18:13:00,
2013-01-30 13:23:00,81.0,64.0,29.95,SW,224,2.0,10.0,57,0.00,,,0.00,,2013-01-30 18:23:00,
2013-01-30 13:33:00,81.0,64.0,29.95,SW,224,2.0,10.0,57,0.00,,,0.00,,2013-01-30 18:33:00,
2013-01-30 13:43:00,81.0,64.0,29.95,SW,224,2.0,10.0,57,0.00,,,0.00,,2013-01-30 18:43:00,
2013-01-30 13:53:00,81.0,63.0,29.92,South,181,6.0,13.0,55,0.00,,,0.00,,2013-01-30 18:53:00,
2013-01-30 14:03:00,81.0,63.0,29.92,South,181,6.0,13.0,55,0.00,,,0.00,,2013-01-30 19:03:00,
2013-01-30 14:13:00,81.0,63.0,29.92,South,181,6.0,13.0,55,0.00,,,0.00,,2013-01-30 19:13:00,
2013-01-30 14:22:00,82.0,64.0,29.92,SSW,199,4.0,13.0,54,0.00,,,0.00,,2013-01-30 19:22:00,
2013-01-30 14:33:00,82.0,64.0,29.92,SSW,199,4.0,13.0,54,0.00,,,0.00,,2013-01-30 19:33:00,
2013-01-30 14:43:00,82.0,64.0,29.92,SSW,199,4.0,13.0,54,0.00,,,0.00,,2013-01-30 19:43:00,
2013-01-30 14:53:00,82.0,64.0,29.91,South,185,5.0,11.0,54,0.00,,,0.00,,2013-01-30 19:53:00,
2013-01-30 15:03:00,82.0,64.0,29.91,South,185,5.0,11.0,54,0.00,,,0.00,,2013-01-30 20:03:00,
2013-01-30 15:12:00,82.0,64.0,29.91,South,185,5.0,11.0,54,0.00,,,0.00,,2013-01-30 20:12:00,
2013-01-30 15:22:00,83.0,64.0,29.90,SSW,203,6.0,17.0,52,0.00,,,0.00,,2013-01-30 20:22:00,
2013-01-30 15:33:00,83.0,64.0,29.90,SSW,203,6.0,17.0,52,0.00,,,0.00,,2013-01-30 20:33:00,
2013-01-30 15:42:00,83.0,64.0,29.90,SSW,203,6.0,17.0,52,0.00,,,0.00,,2013-01-30 20:42:00,
2013-01-30 15:53:00,83.0,64.0,29.89,SSE,155,6.0,12.0,53,0.00,,,0.00,,2013-01-30 20:53:00,
2013-01-30 16:03:00,83.0,64.0,29.89,SSE,155,6.0,12.0,53,0.00,,,0.00,,2013-01-30 21:03:00,
2013-01-30 16:12:00,83.0,64.0,29.89,SSE,155,6.0,12.0,53,0.00,,,0.00,,2013-01-30 21:12:00,
2013-01-30 16:23:00,83.0,64.0,29.89,SE,145,2.0,10.0,53,0.00,,,0.00,,2013-01-30 21:23:00,
2013-01-30 16:32:00,83.0,64.0,29.89,SE,145,2.0,10.0,53,0.00,,,0.00,,2013-01-30 21:32:00,
2013-01-30 16:43:00,83.0,64.0,29.89,SE,145,2.0,10.0,53,0.00,,,0.00,,2013-01-30 21:43:00,
2013-01-30 16:53:00,82.0,64.0,29.88,South,178,2.0,6.0,54,0.00,,,0.00,,2013-01-30 21:53:00,
2013-01-30 17:03:00,82.0,64.0,29.88,South,178,2.0,6.0,54,0.00,,,0.00,,2013-01-30 22:03:00,
2013-01-30 17:12:00,82.0,64.0,29.88,South,178,2.0,6.0,54,0.00,,,0.00,,2013-01-30 22:12:00,
2013-01-30 17:22:00,81.0,63.0,29.87,SSW,208,1.0,7.0,55,0.00,,,0.00,,2013-01-30 22:22:00,
2013-01-30 17:31:00,81.0,64.0,29.87,ESE,106,0.0,6.0,57,0.00,,,0.00,,2013-01-30 22:31:00,
2013-01-30 17:32:00,81.0,63.0,29.87,SSW,208,1.0,7.0,55,0.00,,,0.00,,2013-01-30 22:32:00,
2013-01-30 17:43:00,81.0,63.0,29.87,SSW,208,1.0,7.0,55,0.00,,,0.00,,2013-01-30 22:43:00,
2013-01-30 17:53:00,81.0,64.0,29.87,ESE,106,0.0,6.0,57,0.00,,,0.00,,2013-01-30 22:53:00,
2013-01-30 18:02:00,81.0,64.0,29.87,ESE,106,0.0,6.0,57,0.00,,,0.00,,2013-01-30 23:02:00,
2013-01-30 18:12:00,81.0,64.0,29.87,ESE,106,0.0,6.0,57,0.00,,,0.00,,2013-01-30 23:12:00,
2013-01-30 18:22:00,81.0,64.0,29.87,ESE,106,0.0,6.0,57,0.00,,,0.00,,2013-01-30 23:22:00,
2013-01-30 22:22:00,72.0,64.0,29.89,SSE,167,1.0,5.0,75,0.00,,,0.00,,2013-01-31 03:22:00,
2013-01-30 22:32:00,72.0,64.0,29.89,SSE,167,1.0,5.0,75,0.00,,,0.00,,2013-01-31 03:32:00,
2013-01-30 22:42:00,72.0,64.0,29.89,SSE,167,1.0,5.0,75,0.00,,,0.00,,2013-01-31 03:42:00,
2013-01-30 22:52:00,72.0,64.0,29.89,WSW,248,1.0,10.0,77,0.00,,,0.00,,2013-01-31 03:52:00,
2013-01-30 23:02:00,72.0,64.0,29.89,WSW,248,1.0,10.0,77,0.00,,,0.00,,2013-01-31 04:02:00,
2013-01-30 23:11:00,72.0,64.0,29.89,WSW,248,1.0,10.0,77,0.00,,,0.00,,2013-01-31 04:11:00,
2013-01-30 23:22:00,71.0,65.0,29.88,SSW,203,2.0,10.0,80,0.00,,,0.00,,2013-01-31 04:22:00,
2013-01-30 23:32:00,71.0,65.0,29.88,SSW,203,2.0,10.0,80,0.00,,,0.00,,2013-01-31 04:32:00,
2013-01-30 23:42:00,71.0,65.0,29.88,SSW,203,2.0,10.0,80,0.00,,,0.00,,2013-01-31 04:42:00,
2013-01-30 23:52:00,71.0,65.0,29.88,SSW,203,3.0,8.0,81,0.00,,,0.00,,2013-01-31 04:52:00,